| time (UTC) | temp F | wind direction | speed MPH | gust MPH | rain 1hr in | rain 24hr in | rain mn in | humidity % | barometer mb |
| 20260903230759 | 59 | 293 | 3.0 | 4.0 | 0.02 | 0.07 | 0.07 | 78 | 1012.5 |
| 20260903230254 | 60 | 255 | 5.0 | 6.0 | 0.00 | 0.07 | 0.07 | 77 | 1012.4 |
| 20260903225750 | 60 | 279 | 4.0 | 6.0 | 0.00 | 0.07 | 0.07 | 75 | 1012.4 |
| 20260903225246 | 60 | 279 | 2.0 | 4.0 | 0.00 | 0.07 | 0.07 | 72 | 1012.3 |
| 20260903224742 | 61 | 285 | 5.0 | 7.0 | 0.00 | 0.07 | 0.07 | 72 | 1011.9 |
| 20260903224238 | 61 | 270 | 3.0 | 9.0 | 0.00 | 0.07 | 0.07 | 73 | 1012.0 |
| 20260903223733 | 62 | 324 | 2.0 | 5.0 | 0.00 | 0.07 | 0.07 | 72 | 1012.0 |
| 20260903223232 | 62 | 355 | 2.0 | 4.0 | 0.00 | 0.07 | 0.07 | 73 | 1012.0 |
| 20260903222727 | 61 | 180 | 0.0 | 3.0 | 0.02 | 0.07 | 0.07 | 75 | 1012.0 |
| 20260903222226 | 61 | 165 | 1.0 | 3.0 | 0.02 | 0.07 | 0.07 | 78 | 1012.3 |
| 20260903221721 | 61 | 190 | 0.0 | 2.0 | 0.02 | 0.06 | 0.06 | 78 | 1012.1 |
| 20260903221220 | 61 | 188 | 0.0 | 4.0 | 0.02 | 0.06 | 0.06 | 75 | 1011.9 |
| 20260903220718 | 61 | 294 | 3.0 | 3.0 | 0.00 | 0.06 | 0.06 | 75 | 1012.0 |
| 20260903220213 | 61 | 286 | 3.0 | 6.0 | 0.00 | 0.06 | 0.06 | 73 | 1012.0 |
| 20260903215712 | 61 | 247 | 5.0 | 7.0 | 0.00 | 0.06 | 0.06 | 73 | 1012.0 |
| 20260903215208 | 62 | 270 | 0.0 | 3.0 | 0.00 | 0.06 | 0.06 | 76 | 1012.1 |
| 20260903214706 | 62 | 323 | 2.0 | 4.0 | 0.00 | 0.06 | 0.06 | 76 | 1012.0 |
| 20260903214202 | 62 | 285 | 1.0 | 2.0 | 0.00 | 0.06 | 0.06 | 75 | 1011.8 |
| 20260903213656 | 62 | 6 | 0.0 | 3.0 | 0.00 | 0.06 | 0.06 | 73 | 1012.0 |
| 20260903213152 | 61 | 233 | 2.0 | 5.0 | 0.00 | 0.06 | 0.06 | 74 | 1011.7 |
| 20260903212648 | 62 | 7 | 1.0 | 3.0 | 0.00 | 0.06 | 0.06 | 74 | 1012.3 |
| 20260903212144 | 63 | 90 | 0.0 | 4.0 | 0.07 | 0.06 | 0.06 | 81 | 1012.0 |
| 20260903211638 | 61 | 154 | 0.0 | 2.0 | 0.14 | 0.06 | 0.06 | 79 | 1011.7 |
| 20260903211135 | 60 | 285 | 1.0 | 3.0 | 0.09 | 0.05 | 0.05 | 77 | 1012.0 |
| 20260903210630 | 61 | 321 | 3.0 | 3.0 | 0.05 | 0.04 | 0.04 | 69 | 1011.9 |
| 20260903210125 | 62 | 194 | 2.0 | 2.0 | 0.02 | 0.03 | 0.03 | 67 | 1012.1 |
| 20260903205619 | 62 | 199 | 2.0 | 3.0 | 0.00 | 0.03 | 0.03 | 63 | 1011.9 |
| 20260903205119 | 62 | 228 | 2.0 | 4.0 | 0.00 | 0.03 | 0.03 | 61 | 1011.9 |
| 20260903204614 | 63 | 289 | 1.0 | 4.0 | 0.00 | 0.03 | 0.03 | 60 | 1011.8 |
| 20260903204110 | 63 | 267 | 3.0 | 5.0 | 0.00 | 0.03 | 0.03 | 61 | 1012.1 |
| 20260903203606 | 63 | 314 | 4.0 | 4.0 | 0.00 | 0.03 | 0.03 | 63 | 1011.9 |
| 20260903203106 | 64 | 0 | 2.0 | 6.0 | 0.00 | 0.03 | 0.03 | 66 | 1011.9 |
| 20260903202556 | 64 | 288 | 9.0 | 9.0 | 0.00 | 0.03 | 0.03 | 63 | 1012.0 |
| 20260903202051 | 65 | 321 | 5.0 | 7.0 | 0.00 | 0.03 | 0.03 | 62 | 1011.8 |
| 20260903201545 | 65 | 261 | 0.0 | 7.0 | 0.00 | 0.03 | 0.03 | 58 | 1011.8 |
| 20260903201044 | 65 | 53 | 0.0 | 5.0 | 0.00 | 0.03 | 0.03 | 67 | 1011.7 |
| 20260903200539 | 64 | 212 | 5.0 | 7.0 | 0.00 | 0.03 | 0.03 | 66 | 1011.7 |
| 20260903200034 | 63 | 106 | 0.0 | 2.0 | 0.00 | 0.03 | 0.03 | 68 | 1011.8 |
| 20260903195531 | 62 | 90 | 1.0 | 3.0 | 0.02 | 0.03 | 0.03 | 76 | 1011.9 |
| 20260903195026 | 60 | 217 | 4.0 | 4.0 | 0.09 | 0.03 | 0.03 | 78 | 1012.1 |
| 20260903194521 | 58 | 249 | 3.0 | 9.0 | 0.07 | 0.02 | 0.02 | 73 | 1012.0 |
| 20260903194016 | 59 | 274 | 3.0 | 9.0 | 0.02 | 0.01 | 0.01 | 75 | 1012.4 |
| 20260903193513 | 61 | 276 | 3.0 | 5.0 | 0.02 | 0.01 | 0.01 | 66 | 1012.4 |
| 20260903193007 | 62 | 280 | 4.0 | 4.0 | 0.00 | 0.00 | 0.00 | 63 | 1012.3 |
| 20260903192459 | 62 | 18 | 1.0 | 3.0 | 0.00 | 0.00 | 0.00 | 64 | 1012.1 |
| 20260903191959 | 62 | 252 | 3.0 | 5.0 | 0.00 | 0.00 | 0.00 | 62 | 1012.1 |
| 20260903191454 | 63 | 298 | 3.0 | 6.0 | 0.00 | 0.00 | 0.00 | 61 | 1012.1 |
| 20260903190949 | 63 | 275 | 6.0 | 6.0 | 0.00 | 0.00 | 0.00 | 64 | 1012.1 |
| 20260903190448 | 63 | 273 | 3.0 | 5.0 | 0.00 | 0.00 | 0.00 | 65 | 1012.1 |
| 20260903185943 | 63 | 0 | 3.0 | 5.0 | 0.00 | 0.00 | 0.00 | 65 | 1012.0 |
| 20260903185439 | 62 | 5 | 2.0 | 6.0 | 0.00 | 0.00 | 0.00 | 64 | 1012.1 |
| 20260903184939 | 62 | 90 | 2.0 | 4.0 | 0.00 | 0.00 | 0.00 | 67 | 1012.4 |
| 20260903184436 | 61 | 270 | 1.0 | 4.0 | 0.00 | 0.00 | 0.00 | 69 | 1012.4 |
| 20260903183930 | 61 | 302 | 3.0 | 3.0 | 0.00 | 0.00 | 0.00 | 70 | 1012.6 |
| 20260903183425 | 60 | 285 | 3.0 | 3.0 | 0.00 | 0.00 | 0.00 | 71 | 1012.5 |
| 20260903182924 | 61 | 33 | 2.0 | 2.0 | 0.00 | 0.00 | 0.00 | 74 | 1012.5 |
| 20260903182423 | 60 | 131 | 2.0 | 2.0 | 0.00 | 0.00 | 0.00 | 72 | 1012.7 |
| 20260903181918 | 60 | 342 | 1.0 | 4.0 | 0.00 | 0.00 | 0.00 | 76 | 1012.6 |
| 20260903181413 | 60 | 307 | 2.0 | 5.0 | 0.00 | 0.00 | 0.00 | 77 | 1012.5 |
| 20260903180912 | 59 | 307 | 2.0 | 3.0 | 0.02 | 0.00 | 0.00 | 77 | 1012.6 |
| 20260903180407 | 58 | 270 | 0.0 | 3.0 | 0.00 | 0.00 | 0.00 | 74 | 1012.9 |
| 20260903175907 | 58 | 248 | 2.0 | 4.0 | 0.00 | 0.00 | 0.00 | 74 | 1012.9 |
| 20260903175401 | 59 | 328 | 3.0 | 4.0 | 0.00 | 0.00 | 0.00 | 74 | 1013.0 |
| 20260903174855 | 59 | 309 | 2.0 | 3.0 | 0.00 | 0.00 | 0.00 | 73 | 1012.9 |
| 20260903174350 | 59 | 279 | 2.0 | 3.0 | 0.00 | 0.00 | 0.00 | 75 | 1013.0 |
| 20260903173844 | 60 | 257 | 0.0 | 1.0 | 0.00 | 0.00 | 0.00 | 73 | 1013.0 |
| 20260903173340 | 59 | 47 | 3.0 | 3.0 | 0.00 | 0.00 | 0.00 | 75 | 1013.1 |
| 20260903172836 | 59 | 57 | 0.0 | 4.0 | 0.00 | 0.00 | 0.00 | 77 | 1012.9 |
| 20260903172330 | 57 | 172 | 0.0 | 2.0 | 0.00 | 0.00 | 0.00 | 79 | 1013.0 |
| 20260903171826 | 57 | 215 | 0.0 | 3.0 | 0.00 | 0.00 | 0.00 | 81 | 1013.0 |
| 20260903171321 | 55 | 83 | 3.0 | 3.0 | 0.00 | 0.00 | 0.00 | 82 | 1012.9 |
| 20260903170820 | 54 | 29 | 0.0 | 2.0 | 0.00 | 0.00 | 0.00 | 84 | 1013.0 |
| 20260903170316 | 54 | 330 | 2.0 | 2.0 | 0.00 | 0.00 | 0.00 | 83 | 1013.1 |
| 20260903165814 | 54 | 26 | 0.0 | 5.0 | 0.00 | 0.00 | 0.00 | 84 | 1013.1 |
| 20260903165308 | 54 | 282 | 1.0 | 4.0 | 0.00 | 0.00 | 0.00 | 84 | 1013.1 |
| 20260903164803 | 54 | 270 | 0.0 | 2.0 | 0.00 | 0.00 | 0.00 | 84 | 1013.2 |
| 20260903164259 | 54 | 270 | 0.0 | 3.0 | 0.00 | 0.00 | 0.00 | 85 | 1012.9 |
| 20260903163757 | 54 | 283 | 2.0 | 5.0 | 0.00 | 0.00 | 0.00 | 85 | 1012.7 |
| 20260903163254 | 55 | 327 | 2.0 | 3.0 | 0.00 | 0.00 | 0.00 | 85 | 1012.7 |
| 20260903162752 | 54 | 262 | 0.0 | 4.0 | 0.00 | 0.00 | 0.00 | 85 | 1012.6 |
| 20260903162246 | 55 | 305 | 3.0 | 7.0 | 0.00 | 0.00 | 0.00 | 83 | 1012.5 |
| 20260903161742 | 56 | 303 | 2.0 | 4.0 | 0.00 | 0.00 | 0.00 | 83 | 1012.5 |
| 20260903161237 | 56 | 270 | 2.0 | 4.0 | 0.00 | 0.00 | 0.00 | 83 | 1012.5 |
| 20260903160733 | 54 | 72 | 2.0 | 4.0 | 0.00 | 0.00 | 0.00 | 85 | 1012.4 |
| 20260903160231 | 54 | 270 | 0.0 | 3.0 | 0.00 | 0.00 | 0.00 | 85 | 1012.3 |
| 20260903155730 | 54 | 66 | 0.0 | 3.0 | 0.00 | 0.00 | 0.00 | 86 | 1012.4 |
| 20260903155225 | 54 | 293 | 3.0 | 4.0 | 0.00 | 0.00 | 0.00 | 86 | 1012.3 |
| 20260903154720 | 54 | 84 | 3.0 | 3.0 | 0.00 | 0.00 | 0.00 | 86 | 1012.5 |
| 20260903154216 | 52 | 342 | 1.0 | 3.0 | 0.00 | 0.00 | 0.00 | 88 | 1012.6 |
| 20260903153712 | 52 | 345 | 1.0 | 3.0 | 0.00 | 0.00 | 0.00 | 89 | 1012.5 |
| 20260903153208 | 51 | 114 | 0.0 | 1.0 | 0.00 | 0.00 | 0.00 | 90 | 1012.8 |
| 20260903152704 | 51 | 319 | 4.0 | 4.0 | 0.00 | 0.00 | 0.00 | 92 | 1012.8 |
| 20260903152200 | 50 | 165 | 0.0 | 2.0 | 0.00 | 0.00 | 0.00 | 93 | 1012.5 |
| 20260903151700 | 50 | 240 | 2.0 | 3.0 | 0.00 | 0.00 | 0.00 | 94 | 1012.6 |
| 20260903151155 | 50 | 274 | 3.0 | 4.0 | 0.00 | 0.00 | 0.00 | 93 | 1012.7 |
| 20260903150655 | 50 | 270 | 1.0 | 3.0 | 0.00 | 0.00 | 0.00 | 94 | 1012.6 |
| 20260903150150 | 49 | 279 | 0.0 | 2.0 | 0.00 | 0.00 | 0.00 | 94 | 1012.6 |
| 20260903145649 | 49 | 270 | 0.0 | 4.0 | 0.00 | 0.00 | 0.00 | 94 | 1012.5 |
| 20260903145145 | 49 | 264 | 2.0 | 4.0 | 0.00 | 0.00 | 0.00 | 94 | 1012.8 |
| 20260903144643 | 50 | 228 | 2.0 | 4.0 | 0.00 | 0.00 | 0.00 | 93 | 1012.4 |
| 20260903144140 | 50 | 346 | 3.0 | 3.0 | 0.00 | 0.00 | 0.00 | 94 | 1012.1 |
| 20260903143636 | 49 | 74 | 0.0 | 2.0 | 0.00 | 0.00 | 0.00 | 94 | 1012.4 |
| 20260903143131 | 49 | 337 | 1.0 | 2.0 | 0.00 | 0.00 | 0.00 | 94 | 1012.4 |
| 20260903142627 | 49 | 279 | 0.0 | 3.0 | 0.00 | 0.00 | 0.00 | 94 | 1012.1 |
| 20260903142123 | 49 | 60 | 1.0 | 2.0 | 0.00 | 0.00 | 0.00 | 95 | 1012.3 |
| 20260903141619 | 49 | 18 | 0.0 | 3.0 | 0.00 | 0.00 | 0.00 | 95 | 1012.1 |
| 20260903141113 | 48 | 77 | 1.0 | 3.0 | 0.00 | 0.00 | 0.00 | 95 | 1012.1 |
| 20260903140610 | 49 | 328 | 1.0 | 3.0 | 0.00 | 0.00 | 0.00 | 94 | 1012.0 |
| 20260903140105 | 49 | 235 | 2.0 | 2.0 | 0.00 | 0.00 | 0.00 | 94 | 1012.0 |
| 20260903135601 | 49 | 65 | 2.0 | 3.0 | 0.00 | 0.00 | 0.00 | 94 | 1011.8 |
| 20260903135101 | 49 | 173 | 0.0 | 3.0 | 0.00 | 0.00 | 0.00 | 94 | 1012.0 |
| 20260903134559 | 49 | 102 | 2.0 | 5.0 | 0.00 | 0.00 | 0.00 | 93 | 1011.9 |
| 20260903134055 | 49 | 90 | 1.0 | 3.0 | 0.00 | 0.00 | 0.00 | 94 | 1011.7 |
| 20260903133553 | 48 | 102 | 1.0 | 6.0 | 0.00 | 0.00 | 0.00 | 94 | 1011.5 |
| 20260903133049 | 48 | 60 | 3.0 | 3.0 | 0.00 | 0.00 | 0.00 | 95 | 1011.6 |
| 20260903132543 | 48 | 42 | 3.0 | 6.0 | 0.00 | 0.00 | 0.00 | 95 | 1011.5 |
| 20260903132038 | 48 | 98 | 1.0 | 3.0 | 0.00 | 0.00 | 0.00 | 95 | 1011.7 |
| 20260903131532 | 48 | 99 | 0.0 | 2.0 | 0.00 | 0.00 | 0.00 | 95 | 1011.6 |
| 20260903131032 | 48 | 105 | 0.0 | 3.0 | 0.00 | 0.00 | 0.00 | 95 | 1011.4 |
| 20260903130526 | 48 | 23 | 0.0 | 1.0 | 0.00 | 0.00 | 0.00 | 96 | 1011.5 |
| 20260903130021 | 48 | 41 | 2.0 | 4.0 | 0.00 | 0.00 | 0.00 | 96 | 1011.5 |
| 20260903125519 | 48 | 81 | 2.0 | 4.0 | 0.00 | 0.00 | 0.00 | 96 | 1011.1 |
| 20260903125015 | 48 | 90 | 1.0 | 2.0 | 0.00 | 0.00 | 0.00 | 96 | 1011.3 |
| 20260903124509 | 48 | 90 | 0.0 | 2.0 | 0.00 | 0.00 | 0.00 | 96 | 1011.4 |
| 20260903124008 | 48 | 291 | 0.0 | 2.0 | 0.00 | 0.00 | 0.00 | 96 | 1011.1 |
| 20260903123504 | 48 | 81 | 0.0 | 2.0 | 0.00 | 0.00 | 0.00 | 96 | 1011.0 |
| 20260903123002 | 48 | 120 | 1.0 | 4.0 | 0.00 | 0.00 | 0.00 | 95 | 1011.1 |
| 20260903122456 | 48 | 120 | 0.0 | 1.0 | 0.00 | 0.00 | 0.00 | 95 | 1011.0 |
| 20260903121956 | 48 | 154 | 2.0 | 2.0 | 0.00 | 0.00 | 0.00 | 95 | 1010.9 |
| 20260903121450 | 48 | 191 | 1.0 | 3.0 | 0.00 | 0.00 | 0.00 | 95 | 1011.0 |
| 20260903120947 | 48 | 23 | 2.0 | 3.0 | 0.00 | 0.00 | 0.00 | 95 | 1010.9 |
| 20260903120445 | 48 | 49 | 3.0 | 3.0 | 0.00 | 0.00 | 0.00 | 96 | 1010.8 |
| 20260903115944 | 48 | 106 | 4.0 | 6.0 | 0.00 | 0.00 | 0.00 | 96 | 1011.0 |
| 20260903115443 | 48 | 30 | 2.0 | 3.0 | 0.00 | 0.00 | 0.00 | 96 | 1011.0 |
| 20260903114938 | 48 | 29 | 1.0 | 3.0 | 0.00 | 0.00 | 0.00 | 96 | 1010.9 |
| 20260903114434 | 48 | 74 | 2.0 | 3.0 | 0.00 | 0.00 | 0.00 | 96 | 1010.9 |
| 20260903113929 | 48 | 112 | 2.0 | 3.0 | 0.00 | 0.00 | 0.00 | 96 | 1011.4 |
| 20260903113425 | 48 | 15 | 0.0 | 2.0 | 0.00 | 0.00 | 0.00 | 96 | 1011.1 |
| 20260903112921 | 47 | 90 | 2.0 | 2.0 | 0.00 | 0.00 | 0.00 | 96 | 1010.9 |
| 20260903112416 | 48 | 286 | 0.0 | 2.0 | 0.00 | 0.00 | 0.00 | 96 | 1011.1 |
| 20260903111915 | 47 | 48 | 2.0 | 2.0 | 0.00 | 0.00 | 0.00 | 96 | 1011.1 |
| 20260903111415 | 47 | 90 | 2.0 | 2.0 | 0.00 | 0.00 | 0.00 | 96 | 1011.3 |
| 20260903110911 | 47 | 98 | 0.0 | 3.0 | 0.00 | 0.00 | 0.00 | 96 | 1011.1 |
| 20260903110407 | 47 | 99 | 0.0 | 2.0 | 0.00 | 0.00 | 0.00 | 96 | 1010.8 |
| 20260903105901 | 47 | 96 | 1.0 | 2.0 | 0.00 | 0.00 | 0.00 | 96 | 1010.8 |
| 20260903105357 | 47 | 81 | 0.0 | 2.0 | 0.00 | 0.00 | 0.00 | 96 | 1010.9 |
| 20260903104856 | 47 | 192 | 0.0 | 2.0 | 0.00 | 0.00 | 0.00 | 95 | 1010.7 |
| 20260903104350 | 47 | 255 | 0.0 | 1.0 | 0.00 | 0.00 | 0.00 | 96 | 1011.0 |
| 20260903103848 | 47 | 120 | 0.0 | 1.0 | 0.00 | 0.00 | 0.00 | 95 | 1010.9 |
| 20260903103344 | 47 | 105 | 0.0 | 2.0 | 0.00 | 0.00 | 0.00 | 96 | 1011.0 |
| 20260903102838 | 47 | 117 | 1.0 | 6.0 | 0.00 | 0.00 | 0.00 | 96 | 1010.9 |
| 20260903102333 | 47 | 94 | 2.0 | 5.0 | 0.00 | 0.00 | 0.00 | 96 | 1010.7 |
| 20260903101833 | 47 | 79 | 3.0 | 5.0 | 0.00 | 0.00 | 0.00 | 96 | 1010.9 |
| 20260903101328 | 47 | 99 | 4.0 | 5.0 | 0.00 | 0.00 | 0.00 | 96 | 1010.9 |
| 20260903100823 | 47 | 98 | 3.0 | 5.0 | 0.00 | 0.00 | 0.00 | 96 | 1011.1 |
| 20260903100317 | 47 | 105 | 3.0 | 4.0 | 0.00 | 0.00 | 0.00 | 96 | 1011.0 |
| 20260903095815 | 47 | 40 | 1.0 | 2.0 | 0.00 | 0.00 | 0.00 | 96 | 1010.9 |
| 20260903095309 | 47 | 99 | 0.0 | 2.0 | 0.00 | 0.00 | 0.00 | 96 | 1011.1 |
| 20260903094805 | 47 | 83 | 1.0 | 2.0 | 0.00 | 0.00 | 0.00 | 96 | 1011.1 |
| 20260903094259 | 47 | 45 | 2.0 | 2.0 | 0.00 | 0.00 | 0.00 | 96 | 1011.0 |
| 20260903093755 | 47 | 57 | 1.0 | 2.0 | 0.00 | 0.00 | 0.00 | 96 | 1010.9 |
| 20260903093250 | 47 | 94 | 2.0 | 2.0 | 0.00 | 0.00 | 0.00 | 95 | 1011.0 |
| 20260903092750 | 47 | 95 | 2.0 | 2.0 | 0.00 | 0.00 | 0.00 | 95 | 1011.0 |
| 20260903092245 | 47 | 56 | 2.0 | 2.0 | 0.00 | 0.00 | 0.00 | 95 | 1011.1 |
| 20260903091743 | 47 | 45 | 2.0 | 3.0 | 0.00 | 0.00 | 0.00 | 96 | 1010.8 |
| 20260903091232 | 47 | 85 | 2.0 | 2.0 | 0.00 | 0.00 | 0.00 | 95 | 1010.9 |
| 20260903090728 | 47 | 98 | 0.0 | 1.0 | 0.00 | 0.00 | 0.00 | 95 | 1010.9 |
| 20260903090227 | 47 | 90 | 1.0 | 2.0 | 0.00 | 0.00 | 0.00 | 95 | 1011.3 |
| 20260903085726 | 47 | 203 | 0.0 | 2.0 | 0.00 | 0.00 | 0.00 | 95 | 1010.8 |
| 20260903085221 | 47 | 261 | 2.0 | 3.0 | 0.00 | 0.00 | 0.00 | 95 | 1011.0 |
| 20260903084718 | 47 | 258 | 2.0 | 3.0 | 0.00 | 0.00 | 0.00 | 95 | 1011.1 |
| 20260903084214 | 47 | 90 | 0.0 | 0.0 | 0.00 | 0.00 | 0.00 | 95 | 1010.9 |
| 20260903083710 | 47 | 111 | 1.0 | 3.0 | 0.00 | 0.00 | 0.00 | 95 | 1010.6 |
| 20260903083209 | 47 | 103 | 2.0 | 3.0 | 0.00 | 0.00 | 0.00 | 95 | 1010.8 |
| 20260903082703 | 47 | 103 | 1.0 | 3.0 | 0.00 | 0.00 | 0.00 | 95 | 1010.7 |
| 20260903082159 | 47 | 113 | 2.0 | 4.0 | 0.00 | 0.00 | 0.00 | 95 | 1010.7 |
| 20260903081653 | 47 | 86 | 3.0 | 6.0 | 0.00 | 0.00 | 0.00 | 95 | 1010.6 |
| 20260903081150 | 47 | 123 | 3.0 | 3.0 | 0.00 | 0.00 | 0.00 | 95 | 1010.6 |
| 20260903080645 | 47 | 108 | 3.0 | 5.0 | 0.00 | 0.00 | 0.00 | 95 | 1010.6 |
| 20260903080143 | 47 | 103 | 0.0 | 2.0 | 0.00 | 0.00 | 0.00 | 95 | 1010.8 |
| 20260903075642 | 47 | 90 | 3.0 | 3.0 | 0.00 | 0.00 | 0.00 | 95 | 1010.4 |
| 20260903075137 | 47 | 94 | 2.0 | 3.0 | 0.00 | 0.00 | 0.00 | 94 | 1010.6 |
| 20260903074636 | 47 | 69 | 3.0 | 3.0 | 0.00 | 0.00 | 0.00 | 94 | 1010.0 |
| 20260903074132 | 48 | 65 | 2.0 | 2.0 | 0.00 | 0.00 | 0.00 | 94 | 1010.3 |
| 20260903073627 | 48 | 73 | 2.0 | 2.0 | 0.00 | 0.00 | 0.00 | 94 | 1010.4 |
| 20260903073122 | 48 | 99 | 3.0 | 4.0 | 0.00 | 0.00 | 0.00 | 93 | 1010.4 |
| 20260903072618 | 48 | 114 | 0.0 | 3.0 | 0.00 | 0.00 | 0.00 | 93 | 1010.1 |
| 20260903072114 | 48 | 139 | 2.0 | 3.0 | 0.00 | 0.00 | 0.00 | 93 | 1010.5 |
| 20260903071611 | 48 | 99 | 0.0 | 7.0 | 0.00 | 0.00 | 0.00 | 93 | 1010.3 |
| 20260903071111 | 48 | 72 | 6.0 | 7.0 | 0.00 | 0.00 | 0.00 | 93 | 1010.4 |
| 20260903070605 | 48 | 48 | 2.0 | 4.0 | 0.00 | 0.00 | 0.00 | 93 | 1009.9 |
| 20260903065600 | 48 | 99 | 3.0 | 4.0 | 0.00 | 0.00 | 0.00 | 93 | 1010.4 |
| 20260903065055 | 48 | 123 | 3.0 | 5.0 | 0.00 | 0.00 | 0.00 | 93 | 1010.4 |
| 20260903064554 | 48 | 152 | 2.0 | 4.0 | 0.00 | 0.00 | 0.00 | 93 | 1010.0 |
| 20260903064050 | 48 | 104 | 5.0 | 9.0 | 0.00 | 0.00 | 0.00 | 92 | 1009.9 |
| 20260903063545 | 49 | 121 | 4.0 | 9.0 | 0.00 | 0.00 | 0.00 | 93 | 1010.1 |
| 20260903063041 | 48 | 123 | 2.0 | 8.0 | 0.00 | 0.00 | 0.00 | 93 | 1010.5 |
| 20260903062536 | 48 | 114 | 0.0 | 2.0 | 0.00 | 0.00 | 0.00 | 94 | 1010.0 |
| 20260903062031 | 48 | 92 | 6.0 | 6.0 | 0.00 | 0.00 | 0.00 | 94 | 1010.0 |
| 20260903061527 | 48 | 98 | 3.0 | 4.0 | 0.00 | 0.00 | 0.00 | 93 | 1010.0 |
| 20260903061026 | 48 | 99 | 0.0 | 2.0 | 0.00 | 0.00 | 0.00 | 93 | 1010.3 |
| 20260903060525 | 48 | 111 | 0.0 | 5.0 | 0.00 | 0.00 | 0.00 | 93 | 1010.3 |
| 20260903060021 | 48 | 131 | 1.0 | 2.0 | 0.00 | 0.29 | 0.29 | 93 | 1010.3 |
| 20260903055518 | 48 | 81 | 0.0 | 1.0 | 0.00 | 0.29 | 0.29 | 93 | 1010.3 |
| 20260903055017 | 48 | 146 | 2.0 | 4.0 | 0.00 | 0.29 | 0.29 | 92 | 1010.4 |
| 20260903054513 | 49 | 129 | 3.0 | 6.0 | 0.00 | 0.29 | 0.29 | 92 | 1010.4 |
| 20260903054008 | 49 | 108 | 4.0 | 4.0 | 0.00 | 0.29 | 0.29 | 92 | 1010.0 |
| 20260903053503 | 49 | 105 | 3.0 | 4.0 | 0.00 | 0.29 | 0.29 | 92 | 1010.3 |
| 20260903052959 | 49 | 99 | 4.0 | 4.0 | 0.00 | 0.29 | 0.29 | 91 | 1010.5 |
| 20260903052455 | 50 | 90 | 2.0 | 7.0 | 0.00 | 0.29 | 0.29 | 91 | 1010.3 |
| 20260903051950 | 50 | 90 | 2.0 | 3.0 | 0.00 | 0.29 | 0.29 | 91 | 1010.6 |
| 20260903051445 | 50 | 114 | 1.0 | 3.0 | 0.00 | 0.29 | 0.29 | 91 | 1010.5 |
| 20260903050941 | 50 | 90 | 3.0 | 5.0 | 0.00 | 0.29 | 0.29 | 90 | 1010.3 |
| 20260903050440 | 50 | 90 | 0.0 | 3.0 | 0.00 | 0.29 | 0.29 | 90 | 1010.5 |
| 20260903045934 | 50 | 105 | 3.0 | 5.0 | 0.00 | 0.29 | 0.29 | 90 | 1010.6 |
| 20260903045430 | 50 | 105 | 6.0 | 6.0 | 0.00 | 0.29 | 0.29 | 91 | 1010.7 |
| 20260903044927 | 50 | 81 | 0.0 | 7.0 | 0.00 | 0.29 | 0.29 | 91 | 1010.6 |
| 20260903044427 | 50 | 129 | 6.0 | 9.0 | 0.00 | 0.29 | 0.29 | 90 | 1010.7 |
| 20260903043923 | 50 | 112 | 7.0 | 10.0 | 0.00 | 0.29 | 0.29 | 90 | 1010.6 |
| 20260903043419 | 50 | 106 | 5.0 | 12.0 | 0.00 | 0.29 | 0.29 | 90 | 1010.8 |
| 20260903042917 | 51 | 100 | 3.0 | 8.0 | 0.00 | 0.29 | 0.29 | 89 | 1010.5 |
| 20260903042413 | 51 | 103 | 6.0 | 10.0 | 0.00 | 0.29 | 0.29 | 89 | 1010.8 |
| 20260903041908 | 51 | 90 | 10.0 | 13.0 | 0.00 | 0.29 | 0.29 | 89 | 1010.6 |
| 20260903041404 | 51 | 112 | 3.0 | 9.0 | 0.00 | 0.29 | 0.29 | 89 | 1010.6 |
| 20260903040900 | 51 | 118 | 6.0 | 8.0 | 0.00 | 0.29 | 0.29 | 90 | 1010.7 |
| 20260903040359 | 51 | 121 | 4.0 | 7.0 | 0.00 | 0.29 | 0.29 | 89 | 1010.9 |
| 20260903035854 | 51 | 102 | 5.0 | 8.0 | 0.00 | 0.29 | 0.29 | 90 | 1010.5 |
| 20260903035350 | 51 | 102 | 5.0 | 9.0 | 0.00 | 0.29 | 0.29 | 90 | 1010.7 |
| 20260903034840 | 51 | 115 | 5.0 | 11.0 | 0.00 | 0.29 | 0.29 | 90 | 1010.9 |
| 20260903034335 | 51 | 109 | 4.0 | 7.0 | 0.00 | 0.29 | 0.29 | 90 | 1010.6 |
| 20260903033830 | 51 | 96 | 6.0 | 9.0 | 0.00 | 0.29 | 0.29 | 89 | 1010.7 |
| 20260903033325 | 52 | 82 | 3.0 | 7.0 | 0.00 | 0.29 | 0.29 | 88 | 1010.8 |
| 20260903032824 | 52 | 96 | 3.0 | 5.0 | 0.00 | 0.29 | 0.29 | 88 | 1010.8 |
| 20260903032320 | 52 | 94 | 2.0 | 5.0 | 0.00 | 0.29 | 0.29 | 88 | 1010.4 |
| 20260903031816 | 52 | 99 | 5.0 | 5.0 | 0.00 | 0.29 | 0.29 | 88 | 1010.6 |
| 20260903031315 | 52 | 87 | 4.0 | 5.0 | 0.00 | 0.29 | 0.29 | 88 | 1010.7 |
| 20260903030811 | 52 | 124 | 4.0 | 6.0 | 0.00 | 0.29 | 0.29 | 88 | 1010.6 |
| 20260903030307 | 53 | 66 | 2.0 | 6.0 | 0.00 | 0.29 | 0.29 | 88 | 1010.5 |
| 20260903025802 | 53 | 74 | 5.0 | 6.0 | 0.00 | 0.29 | 0.29 | 87 | 1010.7 |
| 20260903025258 | 53 | 98 | 2.0 | 7.0 | 0.00 | 0.29 | 0.29 | 87 | 1010.6 |
| 20260903024752 | 53 | 34 | 3.0 | 7.0 | 0.00 | 0.29 | 0.29 | 87 | 1010.6 |
| 20260903024251 | 53 | 93 | 3.0 | 7.0 | 0.00 | 0.29 | 0.29 | 87 | 1010.5 |
| 20260903023747 | 54 | 106 | 4.0 | 7.0 | 0.00 | 0.29 | 0.29 | 87 | 1010.5 |
| 20260903023243 | 54 | 107 | 5.0 | 7.0 | 0.00 | 0.29 | 0.29 | 86 | 1010.6 |
| 20260903022743 | 55 | 107 | 4.0 | 9.0 | 0.00 | 0.29 | 0.29 | 85 | 1010.5 |
| 20260903022242 | 55 | 113 | 7.0 | 9.0 | 0.00 | 0.29 | 0.29 | 85 | 1010.7 |
| 20260903021741 | 55 | 106 | 4.0 | 5.0 | 0.00 | 0.29 | 0.29 | 83 | 1010.4 |
| 20260903021237 | 55 | 105 | 4.0 | 7.0 | 0.00 | 0.29 | 0.29 | 82 | 1010.3 |
| 20260903020737 | 56 | 109 | 3.0 | 5.0 | 0.00 | 0.29 | 0.29 | 81 | 1010.7 |
| 20260903020231 | 56 | 98 | 4.0 | 5.0 | 0.00 | 0.29 | 0.29 | 80 | 1010.3 |
| 20260903015726 | 57 | 83 | 7.0 | 8.0 | 0.00 | 0.29 | 0.29 | 80 | 1010.5 |
| 20260903015222 | 57 | 107 | 3.0 | 6.0 | 0.00 | 0.29 | 0.29 | 78 | 1010.5 |
| 20260903014717 | 58 | 105 | 3.0 | 6.0 | 0.00 | 0.29 | 0.29 | 76 | 1010.4 |
| 20260903014217 | 59 | 142 | 2.0 | 7.0 | 0.00 | 0.29 | 0.29 | 76 | 1010.5 |
| 20260903013712 | 59 | 90 | 0.0 | 4.0 | 0.00 | 0.29 | 0.29 | 75 | 1010.6 |
| 20260903013211 | 60 | 124 | 0.0 | 2.0 | 0.00 | 0.29 | 0.29 | 71 | 1010.7 |
| 20260903012709 | 61 | 151 | 0.0 | 2.0 | 0.00 | 0.29 | 0.29 | 71 | 1010.5 |
| 20260903012204 | 60 | 180 | 0.0 | 0.0 | 0.00 | 0.29 | 0.29 | 72 | 1010.7 |
| 20260903011659 | 60 | 15 | 0.0 | 0.0 | 0.00 | 0.29 | 0.29 | 70 | 1010.9 |
| 20260903011158 | 59 | 15 | 0.0 | 0.0 | 0.00 | 0.29 | 0.29 | 72 | 1010.5 |
| 20260903010653 | 59 | 15 | 0.0 | 1.0 | 0.00 | 0.29 | 0.29 | 72 | 1010.9 |
| 20260903010153 | 60 | 261 | 0.0 | 0.0 | 0.00 | 0.29 | 0.29 | 69 | 1010.7 |
| 20260903005647 | 61 | 261 | 0.0 | 0.0 | 0.00 | 0.29 | 0.29 | 67 | 1010.7 |
| 20260903005142 | 61 | 270 | 0.0 | 2.0 | 0.00 | 0.29 | 0.29 | 66 | 1010.8 |
| 20260903004637 | 61 | 325 | 0.0 | 3.0 | 0.00 | 0.29 | 0.29 | 67 | 1011.0 |
| 20260903004132 | 60 | 172 | 0.0 | 0.0 | 0.00 | 0.29 | 0.29 | 70 | 1011.0 |
| 20260903003628 | 61 | 66 | 0.0 | 1.0 | 0.00 | 0.29 | 0.29 | 68 | 1011.0 |
| 20260903003123 | 62 | 297 | 0.0 | 3.0 | 0.00 | 0.29 | 0.29 | 67 | 1011.1 |
| 20260903002618 | 62 | 301 | 2.0 | 2.0 | 0.00 | 0.29 | 0.29 | 66 | 1011.3 |
| 20260903002112 | 61 | 283 | 2.0 | 3.0 | 0.00 | 0.29 | 0.29 | 68 | 1011.5 |
| 20260903001607 | 62 | 0 | 0.0 | 2.0 | 0.00 | 0.29 | 0.29 | 68 | 1011.3 |
| 20260903001107 | 62 | 305 | 2.0 | 4.0 | 0.00 | 0.29 | 0.29 | 66 | 1011.3 |
| 20260903000602 | 61 | 74 | 0.0 | 2.0 | 0.00 | 0.29 | 0.29 | 69 | 1011.6 |
| 20260903000055 | 62 | 330 | 2.0 | 3.0 | 0.00 | 0.29 | 0.29 | 70 | 1011.5 |
| 20260902235555 | 61 | 326 | 2.0 | 4.0 | 0.00 | 0.29 | 0.29 | 71 | 1011.6 |
| 20260902235050 | 60 | 270 | 1.0 | 4.0 | 0.00 | 0.29 | 0.29 | 73 | 1011.7 |
| 20260902234544 | 59 | 257 | 4.0 | 4.0 | 0.00 | 0.29 | 0.29 | 76 | 1011.8 |
| 20260902234043 | 59 | 276 | 2.0 | 4.0 | 0.00 | 0.29 | 0.29 | 75 | 1011.7 |
| 20260902233538 | 59 | 26 | 2.0 | 3.0 | 0.00 | 0.29 | 0.29 | 75 | 1011.7 |
| 20260902233032 | 59 | 284 | 3.0 | 3.0 | 0.00 | 0.29 | 0.29 | 74 | 1011.5 |
| 20260902232532 | 58 | 0 | 0.0 | 2.0 | 0.00 | 0.29 | 0.29 | 74 | 1011.5 |
| 20260902232026 | 59 | 98 | 1.0 | 3.0 | 0.00 | 0.29 | 0.29 | 75 | 1011.9 |
| 20260902231521 | 60 | 246 | 0.0 | 1.0 | 0.00 | 0.29 | 0.29 | 75 | 1011.9 |